Location: PSU-Greenbush Astrophysical Observatory
(37.5140°N, 94.9880°W)
Time: 17:26:48
(UTC-06:00)

deb Explorer IX - Pass Details

Date: 31 January 2020
Orbit: 549 x 1099 km, 38.8° (Epoch: 19 February)

Event Time Altitude Azimuth Distance (km) Brightness Sun altitude
Rises 19:38:59 0° 246° (WSW) 3,355 ? -23.2°
Reaches altitude 10° 19:41:21 10° 244° (WSW) 2,504 ? -23.7°
Maximum altitude 19:47:23 74° 161° (SSE) 1,000 ? -24.9°
Enters shadow 19:48:43 57° 98° (E) 1,140 ? -25.2°
Drops below altitude 10° 19:54:20 10° 78° (ENE) 2,856 - -26.3°
Sets 19:57:12 0° 76° (ENE) 3,857 - -26.9°
